CAPE
2792 2527 2849 3123 2740 2160 2389 1968 1496 1548 1198 936 1022 850 522 569 424 330 110 110 291 52 107 43 167 63 12 14 133 37 13 0 0 0 17 15 106 8 25 9 0 0 0
3095 2994 2741 2912 3086 2596 2124 2058 2077 1333 1522 1334 1110 1012 590 342 551 340 150 262 256 265 88 13 11 166 20 18 75 43 73 18 0 0 9 43 51 23 19 55 9 52 11
3119 3291 3180 2984 3064 3058 2494 2265 2288 1923 1568 1425 1385 1128 772 555 513 367 164 102 320 246 214 73 148 203 113 180 130 171 91 122 84 54 21 21 33 24 31 0 0 0 0
3297 3239 3260 3203 3209 3197 3127 2448 2487 2399 1849 1460 1262 1065 798 607 510 369 245 238 274 127 110 271 357 280 96 124 104 169 127 108 71 56 17 5 0 0 0 0 0 0 0
3170 3208 3111 3260 3319 3252 3171 3067 2328 2507 2345 1674 1279 998 834 630 505 328 324 456 416 287 204 374 385 332 401 341 159 170 183 85 79 69 40 15 5 1 0 0 0 0 0
2775 3016 3039 2986 3319 3243 3171 3100 3014 2434 2706 1936 1214 1189 1015 926 715 347 339 353 481 420 294 359 348 596 666 650 461 160 166 108 60 10 4 0 0 0 0 0 0 0 0
1958 2711 2849 2925 3155 3235 3235 2985 3088 2810 2947 2564 1718 1209 1181 1080 621 305 301 330 461 418 369 447 461 381 551 247 16 107 40 37 63 32 27 3 15 5 1 4 0 0 0
1848 2184 2681 2887 3155 3439 3411 3148 3047 3160 3010 2796 1962 1549 1369 1162 602 42 141 121 361 382 577 674 555 472 245 214 240 188 237 140 38 11 0 0 0 6 35 33 4 0 0
1933 2125 2690 2956 3222 3482 3556 3402 3128 3159 2843 2594 2104 1760 1520 563 92 0 0 1 52 39 19 356 426 261 405 486 234 215 65 76 405 174 48 6 9 55 46 0 0 0 0
1781 2472 2592 2948 3268 3657 3612 3500 3213 3043 2921 2232 1685 1425 952 340 0 0 0 0 0 0 44 249 433 398 466 255 150 143 56 75 34 4 7 1 0 0 0 1 2 0 0
2629 2994 3300 3455 3830 3817 3600 3512 3308 2773 2233 2029 1610 1127 731 391 0 0 0 11 24 70 92 298 276 311 10 1 6 48 45 0 0 0 0 0 0 0 0 19 27 14 6
3611 3676 4159 4106 4013 3883 3651 3000 2300 2066 2062 1581 1180 818 592 393 217 0 0 3 101 188 174 196 131 87 0 0 0 0 0 0 0 0 0 0 0 0 0 0 0 12 5
3916 4048 4026 3702 3670 3049 2479 2040 1659 1282 1266 1018 948 823 694 635 336 60 0 0 0 0 6 0 0 0 0 0 0 0 0 0 0 0 0 0 0 0 0 0 0 0 0
3779 3230 2480 2170 1853 1673 1409 1486 1149 910 847 843 769 732 660 712 0 1 0 0 0 0 0 0 0 0 0 0 0 0 0 0 0 0 0 0 0 0 0 0 0 0 0
2316 1760 1469 874 149 1 1 182 376 0 463 894 866 803 822 699 72 0 0 1 0 0 0 0 0 0 0 0 0 0 0 0 1 8 0 0 0 0 0 0 0 0 0
1472 1392 549 160 0 0 0 0 0 0 0 0 5 362 0 108 51 0 0 0 0 0 0 0 0 0 0 0 0 0 7 16 11 13 0 0 0 0 0 0 0 0 0
1208 1032 511 118 6 0 0 0 0 0 0 0 0 0 0 0 0 0 0 0 0 0 0 0 0 0 0 0 2 16 16 19 6 0 0 0 0 0 0 0 0 0 0
1029 1047 996 540 183 37 0 0 0 0 0 0 0 0 0 0 0 0 0 0 0 0 0 0 0 0 0 0 0 0 0 0 0 0 0 0 0 0 0 0 0 0 0
1095 1131 1090 950 824 530 251 0 0 0 0 0 0 0 0 0 0 0 0 0 0 0 0 0 0 0 0 0 0 0 0 0 0 0 0 0 0 0 0 0 0 0 0
131 404 608 544 373 561 346 118 0 0 0 0 0 0 0 0 0 0 0 0 0 0 0 0 0 0 0 0 0 0 0 0 0 0 0 0 0 0 0 0 0 0 0
8 0 19 0 0 3 0 0 3 0 0 0 0 0 0 0 0 0 0 0 0 0 0 0 0 0 0 0 0 0 0 0 0 0 0 0 0 0 0 0 0 0 0
32 0 0 1 7 26 41 31 43 29 0 0 0 0 0 0 0 0 0 0 0 0 0 0 0 0 0 0 0 0 0 0 0 0 0 0 0 0 0 0 0 0 0
5 13 9 3 10 1 0 0 20 49 32 2 0 0 0 0 0 0 0 0 0 0 0 0 0 0 0 0 0 0 0 0 0 0 0 0 0 0 0 0 0 0 0
12 23 2 3 4 0 4 3 0 6 9 0 0 0 0 0 0 0 2 0 0 0 0 0 0 0 0 0 0 0 0 0 0 0 0 0 0 0 0 0 0 0 0
14 24 40 4 9 18 4 19 10 0 0 0 0 0 0 0 18 0 5 3 0 0 0 0 0 0 0 0 0 0 0 0 0 0 0 0 0 0 0 0 0 0 0
24 45 27 21 23 44 32 15 8 5 10 20 8 14 3 1 0 1 0 0 0 0 0 0 0 0 0 0 0 0 0 0 0 0 0 0 0 0 0 0 0 0 0
CIN
-157 -158 -112 -100 -128 -150 -110 -154 -195 -132 -227 -271 -269 -293 -330 -319 -325 -317 -377 -314 -192 -229 -189 -204 -151 -164 -197 -190 -111 -108 -92 0 0 0 -94 -79 -46 -44 -43 -86 0 0 0
-180 -149 -166 -136 -101 -133 -167 -179 -162 -228 -233 -248 -288 -320 -355 -373 -316 -321 -371 -253 -229 -192 -203 -220 -196 -136 -172 -176 -153 -139 -97 -102 0 0 -144 -111 -95 -117 -119 -78 -46 -52 -52
-189 -159 -148 -149 -113 -123 -171 -177 -164 -175 -229 -283 -290 -333 -380 -381 -341 -359 -410 -363 -205 -211 -172 -180 -145 -111 -151 -146 -166 -84 -103 -140 -92 -85 -111 -120 -105 -109 -59 0 0 0 0
-224 -199 -178 -158 -151 -145 -143 -194 -188 -175 -211 -297 -324 -337 -370 -369 -357 -365 -378 -322 -226 -229 -178 -113 -92 -95 -151 -151 -200 -138 -145 -141 -102 -98 -127 -91 0 -7 0 0 0 0 0
-263 -247 -239 -206 -165 -141 -137 -153 -222 -175 -188 -268 -318 -335 -350 -358 -370 -414 -364 -274 -197 -163 -155 -74 -76 -78 -106 -84 -125 -144 -110 -96 -117 -111 -108 -103 -136 -93 0 0 0 0 0
-332 -324 -281 -239 -177 -167 -163 -152 -146 -187 -136 -237 -341 -315 -290 -273 -291 -396 -357 -304 -169 -110 -90 -66 -46 -47 -30 -34 -55 -103 -89 -93 -104 -135 -100 0 0 0 0 0 0 0 0
-346 -329 -317 -290 -226 -200 -170 -172 -134 -152 -101 -140 -254 -303 -267 -258 -310 -407 -371 -330 -200 -109 -87 -50 -67 -46 -34 -76 -126 -92 -120 -136 -104 -120 -101 -109 -76 -99 -9 -17 0 0 0
-401 -372 -338 -312 -259 -182 -150 -160 -131 -90 -80 -88 -193 -230 -222 -229 -311 -661 -492 -386 -161 -92 -49 -41 -53 -60 -61 -65 -77 -89 -89 -120 -176 -198 0 0 0 -41 -82 -71 -17 0 0
-398 -417 -373 -335 -265 -191 -153 -129 -124 -80 -85 -105 -162 -190 -190 -380 -429 0 0 -58 -296 -232 -253 -63 -56 -59 -37 -39 -54 -66 -97 -100 -91 -127 -167 -180 -163 -84 -65 0 0 0 0
-356 -377 -368 -331 -265 -200 -146 -120 -123 -100 -83 -175 -245 -287 -352 -485 0 0 0 0 0 -23 -308 -120 -31 -34 -54 -78 -64 -84 -94 -108 -117 -165 -183 -13 -12 0 0 -14 -109 -11 0
-318 -289 -248 -226 -191 -161 -130 -110 -105 -133 -176 -181 -243 -287 -347 -448 0 0 0 -429 -343 -244 -170 -64 -72 -47 -159 -82 -59 -137 -64 0 0 0 0 0 0 0 -12 -65 -134 -133 -89
-299 -188 -132 -124 -105 -94 -101 -145 -200 -207 -167 -246 -261 -367 -360 -385 -471 0 0 -148 -219 -115 -64 -63 -113 -171 0 0 0 0 0 0 0 0 0 0 0 0 0 0 -37 -105 -131
-195 -145 -126 -112 -78 -149 -214 -228 -228 -312 -272 -258 -259 -239 -279 -255 -368 -412 0 0 0 -21 -13 0 0 0 0 0 0 0 0 0 0 0 0 0 0 0 0 0 0 0 0
-159 -176 -219 -230 -297 -312 -285 -268 -312 -366 -325 -289 -289 -271 -255 -185 0 0 0 0 0 0 0 0 0 0 0 0 0 0 0 0 0 0 0 0 0 0 0 0 0 0 0
-301 -352 -317 -509 -476 0 0 -361 -528 0 -413 -264 -235 -209 -121 -142 -203 0 0 0 0 0 0 0 0 0 0 0 0 0 0 0 -95 -121 -37 0 0 0 0 0 0 0 0
-320 -269 -499 -763 0 0 0 0 0 0 0 0 -89 -262 0 -92 -309 -75 -45 0 0 0 0 0 0 0 0 0 0 0 -95 -132 -138 -92 0 0 0 0 0 0 0 0 0
-312 -292 -374 -613 -669 0 0 0 0 0 0 0 0 0 0 0 0 0 0 0 0 0 0 0 0 0 0 0 -141 -104 -90 -109 -124 0 0 0 0 0 0 0 0 0 0
-240 -208 -232 -371 -421 -603 0 0 0 0 0 0 0 0 0 0 0 0 0 0 0 0 0 0 0 0 0 0 0 0 0 0 0 0 0 0 0 0 0 0 0 0 0
-184 -168 -138 -197 -238 -310 -338 -17 0 0 0 0 0 0 0 0 0 0 0 0 0 0 0 0 0 0 0 0 0 0 0 0 0 0 0 0 0 0 0 0 0 0 0
-390 -199 -115 -116 -180 -185 -163 -216 0 0 0 0 0 0 0 0 0 0 0 0 0 0 0 0 0 0 0 0 0 0 0 0 0 0 0 0 0 0 0 0 0 0 0
-327 0 -199 -43 0 -192 0 0 -84 0 0 0 0 0 0 0 0 0 0 0 0 0 0 0 0 0 0 0 0 0 0 0 0 0 0 0 0 0 0 0 0 0 0
-276 0 0 -50 -119 -106 -60 -99 -102 -125 -15 0 0 0 0 0 0 0 0 0 0 0 0 0 0 0 0 0 0 0 0 0 0 0 0 0 0 0 0 0 0 0 0
-97 -131 -121 -78 -156 -102 0 0 -147 -122 -140 -85 0 0 0 0 0 0 0 0 0 0 0 0 0 0 0 0 0 0 0 0 0 0 0 0 0 0 0 0 0 0 0
-132 -144 -83 -136 -107 0 -103 -136 -34 -148 -177 -27 0 0 0 0 0 0 -107 0 0 0 0 0 0 0 0 0 0 0 0 0 0 0 0 0 0 0 0 0 0 0 0
-104 -93 -100 -127 -144 -114 -64 -80 -149 -84 -15 0 0 0 0 0 -107 -7 -159 -166 0 0 0 0 0 0 0 0 0 0 0 0 0 0 0 0 0 0 0 0 0 0 0
-88 -80 -80 -97 -92 -80 -70 -86 -89 -109 -98 -102 -127 -147 -73 -50 -20 -98 0 0 0 0 0 0 0 0 0 0 0 0 0 0 0 0 0 0 0 0 0 0 0 0 0
Wind_Speed
21 19 17 16 15 13 11 8 10 8 9 13 13 13 12 12 11 10 8 7 7 7 5 6 6 5 3 3 2 2 1 2 2 4 2 3 2 4 5 4 5 5 5
21 19 19 16 15 15 15 12 11 11 9 14 15 14 14 13 12 12 10 8 8 8 7 6 7 4 6 5 4 5 4 3 3 4 3 2 3 4 5 4 5 3 5
20 20 18 17 17 17 17 15 13 13 11 15 15 16 15 14 12 12 11 8 6 8 7 7 7 6 6 4 3 4 3 2 2 2 3 2 3 2 5 4 4 3 3
21 20 20 19 19 18 16 17 11 14 15 13 15 15 14 13 12 12 10 8 7 7 7 7 7 8 7 7 6 6 3 3 3 3 3 4 4 5 2 1 4 2 3
22 21 21 19 18 16 16 16 17 11 13 12 11 11 10 11 10 12 11 9 8 7 7 7 9 9 11 10 5 6 6 4 3 3 4 2 3 2 2 2 3 3 3
22 23 20 18 17 17 16 15 14 15 11 11 12 10 10 9 13 15 12 9 7 7 7 7 7 11 9 12 13 10 9 6 5 3 4 5 5 3 2 2 2 2 4
21 20 20 19 18 18 15 14 14 15 10 12 10 10 10 11 13 16 14 7 8 7 7 8 6 6 8 5 10 9 8 10 9 5 5 5 5 5 4 3 4 4 5
21 20 19 19 19 17 16 15 13 12 14 11 10 10 10 8 14 15 16 7 6 7 8 9 8 6 5 5 5 6 7 6 6 5 6 8 7 7 6 6 6 4 3
20 21 20 20 18 17 18 15 13 11 7 10 9 11 9 6 12 10 10 6 6 6 5 6 6 6 8 7 5 5 7 6 6 11 12 10 10 10 7 2 4 2 4
20 20 18 18 18 17 17 15 11 10 11 10 9 10 11 9 13 14 10 5 5 5 5 7 13 10 8 7 7 6 6 4 2 2 1 3 5 7 11 7 5 4 3
15 12 14 16 16 16 15 12 12 10 9 8 9 6 9 10 10 14 13 7 6 5 7 5 5 10 11 10 9 6 4 4 1 2 3 4 5 5 5 3 5 5 4
11 13 12 14 12 12 15 10 11 10 10 8 8 7 6 6 10 13 16 13 6 5 4 4 3 9 7 9 7 8 8 3 2 3 2 3 4 3 2 3 5 5 5
14 13 13 12 12 11 13 12 9 9 9 7 6 5 5 5 4 14 17 16 9 2 3 3 4 7 8 5 7 9 7 3 2 1 2 3 3 3 4 4 5 5 4
14 13 11 13 13 11 8 8 9 7 7 7 6 5 4 4 5 4 3 4 3 3 6 4 4 4 4 4 3 4 4 4 4 3 2 3 2 2 3 1 2 2 2
15 14 14 11 12 9 10 5 6 5 5 7 5 5 6 5 4 8 8 6 5 5 5 3 2 2 3 3 3 5 4 4 4 3 2 1 1 2 2 2 2 3 2
14 10 10 10 9 8 9 9 18 11 10 9 6 7 1 4 15 11 13 12 11 12 3 3 4 5 5 5 5 5 4 6 3 2 3 2 2 2 2 3 2 2 3
14 12 9 10 10 10 9 9 10 6 15 16 14 8 6 11 14 12 12 10 9 10 3 4 4 5 5 5 5 4 2 3 3 1 2 1 1 2 3 3 3 3 4
12 13 8 10 9 9 8 7 7 9 6 4 10 9 10 11 11 11 11 9 3 1 3 3 3 2 2 3 3 3 3 4 3 2 0 2 3 2 2 3 4 3 4
9 9 6 8 10 10 10 9 7 5 5 7 4 6 6 7 9 8 7 3 3 3 3 1 4 5 5 5 5 4 4 3 2 0 2 2 4 1 2 4 5 7 7
7 11 8 4 4 9 8 8 8 7 7 8 6 6 6 5 4 5 4 4 3 2 5 5 4 5 5 5 4 3 2 2 2 2 3 1 1 2 3 5 5 4 5
5 7 8 6 5 5 5 6 11 9 8 9 8 8 12 7 6 5 5 5 5 5 5 6 5 5 4 4 4 3 1 2 3 2 3 3 3 3 4 4 4 6 5
4 6 4 3 2 4 5 5 9 9 8 8 6 8 17 4 5 6 5 6 5 6 5 7 5 5 5 5 5 4 2 3 3 3 4 3 3 4 4 4 5 5 4
6 6 5 6 5 4 4 3 6 6 6 5 6 8 7 6 4 5 6 5 5 5 5 5 6 6 5 5 5 5 4 4 4 4 4 3 3 4 4 4 5 4 4
6 5 5 5 5 4 2 4 5 6 7 7 8 8 8 6 5 5 5 5 5 5 5 5 6 8 7 6 4 4 5 5 5 5 5 2 3 5 5 5 4 6 5
2 5 5 4 5 3 5 5 4 5 5 6 5 6 7 5 4 6 7 8 9 9 9 7 6 11 11 10 9 9 8 11 7 5 2 1 3 6 6 4 4 5 5
5 5 4 4 4 4 5 5 4 6 6 6 5 6 5 5 6 7 5 6 5 5 6 5 7 10 12 11 12 13 9 10 8 7 3 0 2 5 5 5 7 5 6
Wind_Direction
185 188 192 195 196 197 198 192 188 190 165 174 177 178 183 179 180 178 180 188 192 203 198 190 214 211 194 170 137 75 96 117 174 303 228 250 214 232 265 247 243 243 248
185 186 194 194 193 197 206 198 191 196 171 177 180 182 187 190 181 181 185 192 193 200 202 193 211 204 208 205 182 184 172 183 159 250 278 290 255 251 236 228 245 250 257
183 187 191 194 195 200 203 203 195 195 188 185 184 189 187 190 183 186 188 189 191 200 195 201 212 202 216 223 198 211 202 170 173 207 260 259 274 276 279 264 253 277 264
183 188 192 194 198 201 200 203 192 194 193 185 192 191 192 187 181 185 182 181 190 200 203 208 206 210 203 210 200 204 210 219 220 220 243 248 240 269 217 210 309 298 299
183 189 195 195 197 199 203 200 205 195 196 189 178 187 183 181 181 182 189 186 184 201 206 205 210 207 207 201 194 199 195 233 236 228 250 257 247 258 223 227 222 252 273
186 193 190 192 193 197 201 200 195 202 195 179 183 175 179 189 183 174 185 184 178 194 215 220 213 218 217 215 203 187 189 202 228 196 236 236 258 232 229 261 264 332 304
193 190 191 189 193 197 194 192 192 195 184 185 176 170 182 193 174 173 179 181 177 193 204 219 218 225 214 217 234 234 252 226 205 190 231 229 240 229 202 241 244 219 229
191 193 190 190 193 189 189 189 185 186 193 177 172 178 182 188 168 187 192 186 178 193 208 214 209 218 238 231 212 223 240 250 219 210 209 248 234 239 210 211 223 240 283
188 192 191 189 187 186 188 181 182 175 157 172 167 179 183 145 162 161 165 175 186 217 221 225 215 222 228 229 232 265 279 273 230 214 212 242 260 250 237 143 262 243 274
195 194 185 183 183 181 174 173 168 159 164 161 162 167 158 158 177 178 170 163 193 214 236 227 221 201 218 231 200 215 245 253 306 77 300 257 252 258 255 205 253 229 246
188 168 170 175 170 165 162 162 155 155 148 152 144 147 164 164 177 174 179 191 206 207 221 220 225 197 178 186 211 195 195 139 216 244 261 292 295 277 274 261 197 190 222
133 146 144 147 150 150 146 141 134 135 141 138 138 145 161 168 156 185 191 206 192 206 220 214 201 175 188 203 178 161 157 157 218 290 339 307 287 304 240 232 238 240 237
122 124 126 121 125 130 129 127 114 114 121 124 136 164 163 174 154 180 199 201 188 166 151 169 123 135 145 147 183 177 177 197 207 204 267 252 236 269 287 322 326 337 319
113 106 109 111 105 103 111 112 125 126 125 138 150 175 175 154 143 144 162 178 189 165 111 119 168 169 146 175 174 210 210 211 205 221 234 253 304 344 340 316 299 292 307
103 102 102 95 98 90 66 56 100 55 124 151 178 158 161 164 173 160 155 155 157 160 134 98 112 154 208 217 220 216 217 216 223 225 254 253 276 337 310 293 268 295 277
118 114 119 117 108 113 106 81 52 59 47 71 79 125 53 119 138 144 143 148 159 147 119 166 191 203 210 213 205 219 214 220 201 224 176 204 262 280 284 301 282 277 282
120 123 119 121 118 123 119 121 119 73 75 62 63 79 123 146 131 124 119 120 144 138 189 195 196 202 218 194 192 202 192 202 148 65 52 23 316 316 332 301 302 299 293
118 108 117 120 136 134 128 130 133 133 138 100 44 86 80 98 116 129 131 110 113 248 208 210 209 229 145 119 95 97 90 79 95 129 114 302 324 325 302 319 314 285 295
120 120 155 153 156 139 142 141 132 154 151 121 118 70 81 112 121 137 142 131 167 218 202 24 102 98 93 94 96 96 106 116 146 38 334 346 315 275 325 319 307 305 314
95 98 121 127 139 141 141 153 151 162 150 138 157 156 156 141 161 176 182 178 182 175 126 131 122 112 116 118 114 111 74 20 319 284 256 267 298 12 331 313 307 318 304
103 89 87 84 89 111 144 129 166 162 161 165 167 167 175 171 175 178 181 195 193 169 147 124 117 116 129 135 133 130 117 285 283 149 123 68 35 356 326 306 316 312 300
61 79 85 107 175 151 176 146 165 169 159 160 146 166 173 186 180 184 190 191 195 158 149 138 130 118 120 120 115 107 115 37 84 105 80 53 23 344 312 317 321 309 313
81 77 103 102 91 44 65 94 128 143 142 133 151 150 178 197 210 198 183 176 170 163 148 150 139 133 143 140 136 134 124 127 129 110 84 44 4 336 312 319 314 313 325
113 122 108 122 130 135 115 106 123 125 133 142 149 160 175 198 189 192 165 153 148 157 164 162 155 145 136 139 129 108 119 125 119 106 106 72 321 322 325 316 312 322 317
249 104 120 163 132 130 137 179 176 158 150 148 155 162 177 182 181 184 172 167 167 175 186 174 154 153 149 142 138 128 127 113 117 113 87 42 301 316 304 282 322 318 321
163 146 155 152 127 153 180 139 165 154 161 160 161 172 174 183 190 170 172 168 176 174 174 175 174 161 149 144 145 148 143 142 132 128 124 341 307 300 298 301 327 321 319